Location: Oklahoma City
(35.4680°N, 97.5160°W)
Time: 18:26:15
(UTC-05:00)

ISS - All Passes

Search period start: 22 May 2018 00:00
Search period end: 01 June 2018 00:00
Orbit: 402 x 407 km, 51.6° (Epoch: 23 May)

Date Brightness Start Highest point End Pass type
(mag) Time Alt. Az. Time Alt. Az. Time Alt. Az.
22 May - 03:53:30 10° NNW 03:56:01 20° NNE 03:58:31 10° E visible
22 May - 05:29:33 10° WNW 05:32:35 38° SW 05:35:38 10° SSE visible
22 May - 20:31:11 10° S 20:33:57 25° SE 20:36:43 10° ENE daylight
22 May - 22:07:34 10° W 22:10:22 26° NW 22:13:12 10° NNE visible
23 May - 03:02:02 10° N 03:03:38 13° NNE 03:05:14 10° NE visible
23 May - 04:37:15 10° NW 04:40:31 86° SW 04:43:46 10° SE visible
23 May - 19:40:30 10° SSE 19:41:59 12° SE 19:43:27 10° E daylight
23 May - 21:14:57 10° WSW 21:18:07 49° NW 21:21:19 10° NE visible
24 May - 03:45:11 10° NW 03:48:19 44° NE 03:51:27 10° ESE visible
24 May - 05:22:43 10° W 05:24:30 14° SW 05:26:17 10° SSW visible
24 May - 20:22:41 10° SW 20:25:57 76° SE 20:29:12 10° NE daylight
24 May - 22:00:58 10° WNW 22:02:46 14° NNW 22:04:34 10° N visible
25 May - 02:53:18 10° NNW 02:56:02 24° NNE 02:58:46 10° E visible
25 May - 04:29:38 10° WNW 04:32:30 28° SW 04:35:22 10° SSE night (unlit)
25 May - 19:30:51 10° SSW 19:33:50 33° SE 19:36:50 10° ENE daylight
25 May - 21:07:45 10° W 21:10:22 22° NNW 21:12:59 10° NNE visible
26 May - 02:01:39 10° N 02:03:39 15° NNE 02:05:39 10° ENE visible
26 May - 03:37:11 10° NW 03:40:25 64° SW 03:43:37 10° SE night (unlit)
26 May - 18:39:40 10° S 18:41:48 16° SE 18:43:56 10° E daylight
26 May - 20:14:58 10° WSW 20:18:03 38° NW 20:21:08 10° NNE daylight
27 May - 01:10:54 10° NNE 01:11:10 10° NNE 01:11:25 10° NNE visible
27 May - 02:45:01 10° NW 02:48:14 57° NE 02:51:26 10° ESE night (unlit)
27 May - 04:23:33 10° WSW 04:24:18 11° SW 04:25:03 10° SW night (unlit)
27 May - 19:22:31 10° SW 19:25:47 81° NW 19:29:04 10° NE daylight
27 May - 21:01:22 10° NW 21:02:43 12° NNW 21:04:04 10° N visible
28 May - 01:53:01 10° NNW 01:55:56 29° NE 01:58:50 10° E visible
28 May - 03:29:42 10° WNW 03:32:18 22° SW 03:34:53 10° S night (unlit)
28 May - 18:30:29 10° SSW 18:33:37 44° SE 18:36:46 10° ENE daylight
28 May - 20:07:53 10° WNW 20:10:15 18° NNW 20:12:38 10° NNE daylight
29 May - 01:01:13 10° NNW 01:03:33 18° NNE 01:05:51 10° ENE visible
29 May - 02:37:03 10° WNW 02:40:12 47° SW 02:43:20 10° SSE night (unlit)
29 May - 17:38:59 10° S 17:41:30 21° SE 17:44:03 10° ENE daylight
29 May - 19:14:54 10° W 19:17:51 30° NW 19:20:49 10° NNE daylight
30 May - 00:09:49 10° N 00:11:03 12° NNE 00:12:16 10° NE visible
30 May - 01:44:44 10° NW 01:48:00 76° NE 01:51:14 10° SE visible
30 May - 16:49:13 10° SE 16:49:28 10° SE 16:49:44 10° ESE daylight
30 May - 18:22:18 10° WSW 18:25:31 61° NW 18:28:46 10° NE daylight
30 May - 20:01:55 10° NW 20:02:35 10° NNW 20:03:13 10° NNW daylight
31 May - 00:52:38 10° NNW 00:55:42 36° NE 00:58:45 10° ESE visible
31 May - 02:29:45 10° W 02:31:58 17° SW 02:34:10 10° S night (unlit)
31 May - 17:30:04 10° SW 17:33:17 60° SE 17:36:32 10° NE daylight
31 May - 19:07:57 10° WNW 19:10:01 16° NNW 19:12:07 10° N daylight
